Location: Benque
(43.2594°N, 0.9178°E)
Time: 03:39:55
(UTC+00:00)

Cosmos 1727 Rocket - Pass Details

Date: 24 January 2020
Orbit: 960 x 997 km, 82.9° (Epoch: 18 February)

Event Time Altitude Azimuth Distance (km) Brightness Sun altitude
Rises 18:55:07 0° 350° (N) 3,662 7.1 -21.4°
Reaches altitude 10° 18:57:38 10° 349° (NNW) 2,708 6.4 -21.8°
Maximum altitude 19:03:48 74° 265° (W) 999 4.1 -23.0°
Drops below altitude 10° 19:09:55 10° 182° (S) 2,686 6.4 -24.1°
Sets 19:12:24 0° 180° (S) 3,630 7.0 -24.5°
